Retour au catalogue

SL-12 R/B(2)

ActifGEO
NORAD 14194·ROCKET BODY·🇷🇺 Russia

Lancé Mar 18, 1981 depuis Baikonur Cosmodrome

Loading…

TLE

FraisSource: Space-Track

Époque: Sep 14, 2026, 13:20 UTC

1 14194U 81027F   26257.55616414 -.00000051  00000-0  00000-0 0  9998
2 14194   7.8387 296.3005 0016488 223.5561 298.1920  0.97663026120980

Suivez SL-12 R/B(2) en temps réel avec AllMySat

Download on the App Store